DW6747 Weather Reports


time (UTC)temp
C
wind
direction
speed
KPH
gust
KPH
rain 1hr
cm
rain 24hr
cm
rain mn
cm
humidity
%
barometer
mb
20260510203257 18 78 0.0 1.6 0.15 0.05 0.05 79 1013.2
20260510202311 21 88 0.0 0.0 0.23 0.03 0.05 66 1013.1
20260510200140 25 80 0.0 0.0 0.00 0.00 0.00 40 1012.4
20260510195117 25 103 0.0 1.6 0.00 0.00 0.00 46 1012.5
20260510192911 26 80 0.0 1.6 0.00 0.00 0.00 41 1012.9
20260510191903 26 83 0.0 4.8 0.00 0.00 0.00 39 1013.1
20260510190918 26 5 0.0 1.6 0.00 0.00 0.00 40 1013.2
20260510185856 26 164 1.6 11.3 0.00 0.00 0.00 37 1013.1
20260510184849 26 79 0.0 3.2 0.00 0.00 0.00 38 1013.2
20260510183832 26 107 0.0 3.2 0.00 0.00 0.00 40 1013.3
20260510182835 26 178 0.0 16.1 0.00 0.00 0.00 41 1013.3
20260510181817 26 134 1.6 16.1 0.00 0.00 0.00 38 1013.4
20260510175638 25 90 0.0 6.4 0.00 0.00 0.00 41 1013.5
20260510174702 25 60 0.0 9.7 0.00 0.00 0.00 41 1013.7
20260510173719 25 102 1.6 9.7 0.00 0.00 0.00 41 1013.8
20260510172725 25 42 0.0 8.0 0.00 0.00 0.00 43 1013.8
20260510171713 26 51 3.2 9.7 0.00 0.00 0.00 39 1013.8
20260510170713 25 190 0.0 9.7 0.00 0.00 0.00 42 1013.9
20260510165656 25 182 0.0 12.9 0.00 0.00 0.00 43 1013.9
20260510164630 25 184 0.0 3.2 0.00 0.00 0.00 43 1014.0
20260510161441 24 90 1.6 12.9 0.00 0.00 0.00 46 1014.0
20260510160452 23 124 0.0 12.9 0.00 0.00 0.00 47 1014.0
20260510154337 23 127 0.0 4.8 0.00 0.00 0.00 51 1014.1
20260510152148 22 69 0.0 4.8 0.00 0.00 0.00 54 1014.3
20260510151205 22 53 0.0 8.0 0.00 0.00 0.00 51 1014.2
20260510150136 21 246 0.0 3.2 0.00 0.00 0.00 52 1014.3
20260510145137 21 344 0.0 8.0 0.00 0.00 0.00 52 1014.0
20260510144113 21 206 0.0 6.4 0.00 0.00 0.00 52 1013.9
20260510141933 21 42 0.0 6.4 0.00 0.00 0.00 52 1013.8
20260510140951 20 102 0.0 4.8 0.00 0.00 0.00 53 1013.7
20260510140003 20 99 0.0 4.8 0.00 0.00 0.00 56 1013.8
20260510135019 19 246 0.0 3.2 0.00 0.00 0.00 61 1013.9
20260510134021 18 121 0.0 1.6 0.00 0.00 0.00 69 1014.1
20260510132959 18 146 0.0 1.6 0.00 0.00 0.00 71 1014.1
20260510132008 17 146 0.0 0.0 0.00 0.00 0.00 74 1014.0
20260510131028 16 146 0.0 1.6 0.00 0.00 0.00 78 1013.9
20260510130053 15 146 0.0 0.0 0.00 0.00 0.00 80 1013.9
20260510125106 15 146 0.0 1.6 0.00 0.00 0.00 82 1014.1
20260510122956 13 0 0.0 0.0 0.00 0.00 0.00 87 1014.3
20260510121924 12 0 0.0 0.0 0.00 0.00 0.00 91 1014.2
20260510120855 12 0 0.0 3.2 0.00 0.00 0.00 93 1014.1
20260510115832 11 0 0.0 0.0 0.00 0.00 0.00 92 1014.1
20260510114816 11 0 0.0 0.0 0.00 0.00 0.00 93 1013.9
20260510113823 10 0 0.0 0.0 0.00 0.00 0.00 93 1013.9
20260510112841 10 0 0.0 0.0 0.00 0.00 0.00 93 1013.8
20260510111851 10 0 0.0 0.0 0.00 0.00 0.00 93 1013.6
20260510105743 10 0 0.0 0.0 0.00 0.00 0.00 93 1013.3
20260510104734 9 0 0.0 0.0 0.00 0.00 0.00 93 1013.1
20260510103747 9 0 0.0 0.0 0.00 0.00 0.00 93 1012.9
20260510101637 8 0 0.0 0.0 0.00 0.00 0.00 93 1012.5
20260510095446 9 0 0.0 0.0 0.00 0.00 0.00 93 1012.3
20260510094415 9 0 0.0 0.0 0.00 0.00 0.00 93 1012.3
20260510092335 9 0 0.0 0.0 0.00 0.00 0.00 93 1012.4
20260510091318 9 0 0.0 0.0 0.00 0.00 0.00 93 1012.2
20260510083939 10 0 0.0 0.0 0.00 0.00 0.00 93 1012.0
20260510082906 9 0 0.0 0.0 0.00 0.00 0.00 92 1012.1
20260510075614 10 0 0.0 0.0 0.00 0.00 0.00 92 1011.6
20260510072349 10 0 0.0 0.0 0.00 0.00 0.00 92 1011.2
20260510071335 10 0 0.0 0.0 0.00 0.00 0.00 92 1011.2
20260510070302 10 0 0.0 0.0 0.00 0.00 0.00 92 1011.1
20260510065306 10 0 0.0 0.0 0.00 0.00 0.00 92 1011.1
20260510064237 10 0 0.0 0.0 0.00 0.00 0.00 92 1010.8
20260510063211 11 0 0.0 0.0 0.00 0.00 0.00 92 1010.8
20260510062204 11 0 0.0 0.0 0.00 0.00 0.00 91 1010.9
20260510060020 11 0 0.0 0.0 0.00 0.00 0.00 91 1010.8
20260510055043 11 0 0.0 0.0 0.00 0.00 0.00 91 1010.9
20260510052831 11 0 0.0 0.0 0.00 0.00 0.00 91 1011.0
20260510051834 12 0 0.0 0.0 0.00 0.00 0.00 91 1011.1
20260510050839 12 0 0.0 0.0 0.00 0.00 0.00 90 1011.0
20260510045818 12 0 0.0 0.0 0.00 0.00 0.00 90 1011.0
20260510044742 12 0 0.0 0.0 0.00 0.00 0.00 90 1011.0
20260510043712 12 0 0.0 0.0 0.00 0.00 0.00 89 1011.0
20260510042714 12 0 0.0 0.0 0.00 0.00 0.00 89 1011.1
20260510041640 12 0 0.0 0.0 0.00 0.00 0.00 88 1011.1
20260510040646 13 0 0.0 0.0 0.00 0.00 0.00 88 1011.1
20260510035624 13 0 0.0 0.0 0.00 0.00 0.00 87 1011.0
20260510034646 13 0 0.0 0.0 0.00 0.00 0.00 86 1011.0
20260510033707 13 0 0.0 0.0 0.00 0.00 0.00 86 1010.9
20260510032718 13 0 0.0 0.0 0.00 0.00 0.00 85 1010.9
20260510031740 14 355 0.0 0.0 0.00 0.00 0.00 84 1010.9
20260510030750 14 355 0.0 0.0 0.00 0.00 0.00 83 1010.9
20260510025756 14 355 0.0 0.0 0.00 0.00 0.00 82 1010.8
20260510024758 14 355 0.0 0.0 0.00 0.00 0.00 81 1010.8
20260510022625 15 355 0.0 0.0 0.00 0.00 0.00 80 1010.8
20260510021555 15 355 0.0 0.0 0.00 0.00 0.00 79 1010.7
20260510020534 15 355 0.0 0.0 0.00 0.00 0.00 78 1010.6
20260510015507 15 355 0.0 0.0 0.00 0.00 0.00 77 1010.5
20260510014511 16 355 0.0 0.0 0.00 0.00 0.00 76 1010.5
20260510013528 16 337 0.0 0.0 0.00 0.00 0.00 77 1010.3
20260510012457 16 336 0.0 1.6 0.00 0.00 0.00 77 1010.1
20260510011458 16 346 0.0 0.0 0.00 0.00 0.00 78 1010.0
20260510010436 16 346 0.0 0.0 0.00 0.00 0.00 77 1009.9
20260510005427 16 346 0.0 0.0 0.00 0.00 0.00 75 1009.7
20260510004427 17 346 0.0 0.0 0.00 0.00 0.00 74 1009.7
20260510003413 17 346 0.0 0.0 0.00 0.00 0.00 72 1009.6
20260510002413 17 346 0.0 1.6 0.00 0.00 0.00 71 1009.5
20260510001408 18 346 0.0 0.0 0.00 0.00 0.00 70 1009.5
20260510000334 18 346 0.0 0.0 0.00 0.00 0.00 69 1009.4
20260509235307 18 345 0.0 0.0 0.00 0.00 0.00 69 1009.4
20260509233143 18 345 0.0 0.0 0.00 0.00 0.00 67 1009.3
20260509232149 18 346 0.0 0.0 0.00 0.00 0.00 67 1009.0
20260509231120 18 346 0.0 0.0 0.00 0.00 0.00 66 1009.1
20260509230142 19 0 0.0 0.0 0.00 0.00 0.00 65 1009.1
20260509225141 19 165 0.0 0.0 0.00 0.00 0.00 65 1009.0
20260509224149 19 19 0.0 0.0 0.00 0.00 0.00 65 1008.9
20260509223152 20 289 0.0 0.0 0.00 0.00 0.00 65 1009.0
20260509221038 20 112 0.0 0.0 0.00 0.00 0.00 63 1009.0
20260509220029 20 17 0.0 4.8 0.00 0.00 0.00 63 1009.0
20260509214957 20 355 0.0 1.6 0.00 0.00 0.00 63 1009.0
20260509213955 21 304 0.0 0.0 0.00 0.00 0.00 61 1009.0
20260509212931 20 290 0.0 1.6 0.00 0.00 0.00 63 1009.0
20260509211940 20 290 0.0 0.0 0.00 0.00 0.00 64 1009.0
20260509210946 20 284 0.0 1.6 0.00 0.00 0.00 61 1009.0
20260509203650 21 142 1.6 3.2 0.00 0.00 0.00 57 1008.8